TimeEST,TemperatureF,Dew PointF,Humidity,Sea Level PressureIn,VisibilityMPH,Wind Direction,Wind SpeedMPH,Gust SpeedMPH,PrecipitationIn,Events,Conditions,WindDirDegrees,DateUTC
12:15 AM,32.9,30.6,91,30.21,10.0,NNW,3.5,-,N/A,,Unknown,340,2013-02-26 05:15:00
12:35 AM,33.1,30.2,89,30.22,10.0,Calm,Calm,-,N/A,,Unknown,0,2013-02-26 05:35:00
12:55 AM,32.9,30.2,90,30.22,10.0,Calm,Calm,-,N/A,,Unknown,0,2013-02-26 05:55:00
1:15 AM,32.4,30.6,93,30.23,10.0,Calm,Calm,-,N/A,,Unknown,0,2013-02-26 06:15:00
1:35 AM,32.2,30.7,94,30.23,10.0,Calm,Calm,-,N/A,,Unknown,0,2013-02-26 06:35:00
1:55 AM,32.4,30.6,93,30.23,10.0,Calm,Calm,-,N/A,,Unknown,0,2013-02-26 06:55:00
2:15 AM,32.2,30.7,94,30.23,10.0,Calm,Calm,-,N/A,,Unknown,0,2013-02-26 07:15:00
2:35 AM,32.2,30.9,95,30.23,10.0,Calm,Calm,-,N/A,,Unknown,0,2013-02-26 07:35:00
3:15 AM,32.0,31.1,96,30.24,4.0,Calm,Calm,-,N/A,Snow,Light Snow,0,2013-02-26 08:15:00
3:35 AM,32.0,31.1,96,30.26,7.0,Calm,Calm,-,N/A,Snow,Light Snow,0,2013-02-26 08:35:00
3:55 AM,32.0,31.1,96,30.27,5.0,Calm,Calm,-,N/A,Snow,Light Snow,0,2013-02-26 08:55:00
4:15 AM,32.0,31.1,96,30.26,5.0,Calm,Calm,-,N/A,Snow,Light Snow,0,2013-02-26 09:15:00
4:35 AM,32.0,31.1,96,30.27,3.0,Calm,Calm,-,N/A,Snow,Light Snow,0,2013-02-26 09:35:00
4:55 AM,32.0,31.1,96,30.27,4.0,Calm,Calm,-,N/A,Snow,Light Snow,0,2013-02-26 09:55:00
5:15 AM,31.6,31.1,98,30.28,4.0,Calm,Calm,-,N/A,Snow,Light Snow,0,2013-02-26 10:15:00
5:35 AM,32.0,31.3,97,30.29,5.0,Calm,Calm,-,N/A,Snow,Light Snow,0,2013-02-26 10:35:00
5:55 AM,32.0,31.5,98,30.29,5.0,Calm,Calm,-,N/A,Snow,Light Snow,0,2013-02-26 10:55:00
6:15 AM,31.5,31.1,99,30.28,4.0,Calm,Calm,-,N/A,,Mist,0,2013-02-26 11:15:00
6:35 AM,31.6,31.1,98,30.29,4.0,Calm,Calm,-,N/A,,Mist,0,2013-02-26 11:35:00
6:55 AM,31.3,30.9,99,30.30,2.5,Calm,Calm,-,N/A,,Mist,0,2013-02-26 11:55:00
7:15 AM,31.5,31.1,99,30.29,3.0,Calm,Calm,-,N/A,,Mist,0,2013-02-26 12:15:00
7:35 AM,31.6,31.5,99,30.30,3.0,Calm,Calm,-,N/A,,Mist,0,2013-02-26 12:35:00
7:55 AM,32.0,31.8,99,30.31,3.0,Calm,Calm,-,N/A,,Mist,0,2013-02-26 12:55:00
8:15 AM,32.0,31.8,99,30.31,4.0,Calm,Calm,-,N/A,,Mist,0,2013-02-26 13:15:00
8:35 AM,32.2,32.0,99,30.31,7.0,Calm,Calm,-,N/A,,Unknown,0,2013-02-26 13:35:00
8:55 AM,32.7,32.0,97,30.32,7.0,Calm,Calm,-,N/A,,Unknown,0,2013-02-26 13:55:00
9:15 AM,33.3,32.0,95,30.32,10.0,Calm,Calm,-,N/A,,Unknown,0,2013-02-26 14:15:00
9:35 AM,34.0,32.0,92,30.32,10.0,Calm,Calm,-,N/A,,Unknown,0,2013-02-26 14:35:00
9:55 AM,34.5,31.6,89,30.32,10.0,Calm,Calm,-,N/A,,Unknown,0,2013-02-26 14:55:00
10:15 AM,35.1,30.7,84,30.32,10.0,Calm,Calm,-,N/A,,Unknown,0,2013-02-26 15:15:00
10:35 AM,35.8,30.4,81,30.32,10.0,Calm,Calm,-,N/A,,Unknown,0,2013-02-26 15:35:00
10:55 AM,36.5,28.9,74,30.31,10.0,ENE,5.8,-,N/A,,Unknown,70,2013-02-26 15:55:00
11:15 AM,37.0,27.9,69,30.31,10.0,ESE,5.8,-,N/A,,Unknown,110,2013-02-26 16:15:00
11:35 AM,37.4,28.0,69,30.31,10.0,East,5.8,-,N/A,,Unknown,90,2013-02-26 16:35:00
11:55 AM,37.4,28.0,69,30.31,10.0,East,4.6,-,N/A,,Unknown,80,2013-02-26 16:55:00
12:15 PM,37.4,28.2,69,30.30,10.0,East,5.8,-,N/A,,Unknown,90,2013-02-26 17:15:00
12:35 PM,37.6,27.9,68,30.30,10.0,East,6.9,-,N/A,,Unknown,90,2013-02-26 17:35:00
12:55 PM,37.2,28.6,71,30.29,10.0,ESE,3.5,-,N/A,,Unknown,110,2013-02-26 17:55:00
1:15 PM,37.4,28.6,70,30.30,10.0,East,4.6,-,N/A,,Unknown,100,2013-02-26 18:15:00
1:35 PM,37.4,28.8,71,30.30,10.0,East,4.6,-,N/A,,Unknown,90,2013-02-26 18:35:00
1:55 PM,37.8,29.3,72,30.30,10.0,Calm,Calm,-,N/A,,Unknown,0,2013-02-26 18:55:00
2:15 PM,37.9,29.3,71,30.29,10.0,East,4.6,-,N/A,,Unknown,80,2013-02-26 19:15:00
2:35 PM,38.3,29.3,70,30.29,10.0,East,4.6,-,N/A,,Unknown,100,2013-02-26 19:35:00
2:55 PM,37.8,29.3,72,30.27,10.0,East,4.6,-,N/A,,Unknown,90,2013-02-26 19:55:00
3:15 PM,37.9,29.3,71,30.26,10.0,East,3.5,-,N/A,,Unknown,90,2013-02-26 20:15:00
3:35 PM,37.8,29.3,72,30.26,10.0,East,4.6,-,N/A,,Unknown,100,2013-02-26 20:35:00
3:55 PM,37.6,29.3,72,30.26,10.0,East,5.8,-,N/A,,Unknown,90,2013-02-26 20:55:00
4:15 PM,37.6,29.3,72,30.25,10.0,East,5.8,-,N/A,,Unknown,80,2013-02-26 21:15:00
4:35 PM,37.6,29.3,72,30.25,10.0,East,3.5,-,N/A,,Unknown,100,2013-02-26 21:35:00
5:15 PM,37.4,29.7,74,30.25,10.0,ESE,5.8,-,N/A,,Unknown,110,2013-02-26 22:15:00
5:35 PM,37.0,30.0,76,30.25,10.0,ESE,4.6,-,N/A,,Unknown,110,2013-02-26 22:35:00
6:15 PM,36.5,30.2,78,30.25,10.0,East,5.8,-,N/A,,Unknown,100,2013-02-26 23:15:00
6:35 PM,36.5,30.2,78,30.25,10.0,East,4.6,-,N/A,,Unknown,100,2013-02-26 23:35:00
7:15 PM,35.6,30.2,81,30.24,10.0,East,3.5,-,N/A,,Unknown,100,2013-02-27 00:15:00
7:35 PM,35.2,30.6,83,30.25,10.0,East,3.5,-,N/A,,Unknown,100,2013-02-27 00:35:00
8:15 PM,35.4,30.2,81,30.26,10.0,East,5.8,-,N/A,,Unknown,90,2013-02-27 01:15:00
8:35 PM,34.9,30.0,82,30.26,10.0,East,4.6,-,N/A,,Unknown,90,2013-02-27 01:35:00
8:55 PM,34.7,29.8,82,30.25,10.0,East,5.8,-,N/A,,Unknown,80,2013-02-27 01:55:00
9:15 PM,34.3,29.5,82,30.25,10.0,East,3.5,-,N/A,,Unknown,100,2013-02-27 02:15:00
9:35 PM,33.8,29.1,83,30.24,10.0,East,3.5,-,N/A,,Unknown,90,2013-02-27 02:35:00
9:55 PM,33.3,28.8,84,30.23,10.0,Calm,Calm,-,N/A,,Unknown,0,2013-02-27 02:55:00
10:15 PM,32.2,28.6,87,30.23,10.0,Calm,Calm,-,N/A,,Unknown,0,2013-02-27 03:15:00
10:35 PM,32.2,28.4,86,30.23,10.0,Calm,Calm,-,N/A,,Unknown,0,2013-02-27 03:35:00
10:55 PM,32.0,28.2,86,30.22,10.0,ENE,3.5,-,N/A,,Unknown,70,2013-02-27 03:55:00
11:15 PM,32.0,28.2,86,30.20,10.0,East,3.5,-,N/A,,Unknown,90,2013-02-27 04:15:00
11:35 PM,32.0,28.2,86,30.19,10.0,ESE,3.5,-,N/A,,Unknown,110,2013-02-27 04:35:00
11:55 PM,32.0,27.7,84,30.18,10.0,Calm,Calm,-,N/A,,Unknown,0,2013-02-27 04:55:00